Location: Marsån
(66.4167°N, 22.2833°E)
Time: 07:39:09
(UTC+00:00)

Okean 1-7 Rocket - Pass Details

Date: 24 February 2024
Orbit: 614 x 646 km, 82.5° (Epoch: 20 April)

Event Time Altitude Azimuth Distance (km) Brightness Sun altitude
Rises 17:41:56 0° 203° (SSW) 2,938 7.2 -14.4°
Reaches altitude 10° 17:44:11 10° 206° (SSW) 2,028 6.4 -14.6°
Maximum altitude 17:48:41 73° 291° (WNW) 670 3.9 -15.1°
Drops below altitude 10° 17:53:10 10° 17° (NNE) 2,019 6.1 -15.5°
Sets 17:55:24 0° 19° (NNE) 2,925 7.0 -15.7°
